COSMOS 1275 DEB, 17637

Orbit data source: Space-Track

COSMOS 1275 DEB, 17637 is space debris in LEO originally from a launch on Thu, 04 Jun 1981 UTC launched from the Plesetsk Missile And Space Complex (PKMTR). Debris objects in space refer to the collection of defunct objects orbiting the Earth. Examples of debris include non-operational satellites, rocket bodies, and fragments generated from explosions, collisions, or faulty payload assembly.

Loading next visibility...
Identifier
17637, 1981-053LG
Orbit
LEO
Country
Flag of CISCIS
Related business
Manufacturer
Unknown
Mission
Spacecraft
Bus & Motor
Unknown
Mass
Unknown
Launch date (UTC)
1981-06-04 (45 years ago)
Launch vehicle
Unknown
Launch site
Plesetsk Missile And Space Complex (PKMTR)
Object type
Payload
Rocket body
Debris
Shape & HBR
Unknown shape, 0.1 m
Radar Cross Section
Medium (>0.1 m² and <1 m²)

Expand to show TLE details & history
Last TLE update: 16 hours ago

TLE from 16 hours ago
0 COSMOS 1275 DEB
1 17637U 81053LG  26255.57522603  .00000716  00000-0  80122-3 0  9991
2 17637  83.0651 102.3841 0132100   2.9040  25.3001 13.66170708 48518
Epoch: 2026-09-12T13:48Z
TLE epoch observation values (Epoch: 2026-09-12T13:48:19.528Z)
Latitude
28.67515°
Longitude
-92.48527°
Altitude
928.831 km
Speed
7.434 km/s
True Right ascension
07h 04m 42s
True Declination
28° 32' 02"
Sunlit
Object was in daylight at epoch
Visualization orbit readout
Latitude
Unknown
Longitude
Unknown
Altitude
Unknown
Speed
Unknown
Apparent Right ascension
Unknown
Apparent Declination
Unknown
Sunlit
N/A
Visualization observer readout
Local Sidereal Time
22:29:34
Azimuth
Unknown
Elevation
Unknown
Doppler factor
Unknown
Orbital elements
Apogee altitude
1,108.11 km
Perigee altitude
912.902 km
Semi-major axis
7,388.643 km
Eccentricity
0.01321
Inclination
83.0651°
RAAN
102.3841°
Arg. of periapsis
2.904°
True anomaly
25.9568°
Mean anomaly
25.3001°
Eccentric anomaly
25.62746°
Mean motion
3.4174 °/min
Orbital period
105.34 mins
BSTAR
0.00080122
Loading maneuver chart data...
Computing Atmospheric mass density...
Loading historical data...
Loading historical data...
Loading historical data...
Loading historical data...
Loading historical data...
Loading historical data...
Loading historical data...

Documentation

Showing up to 5 results
|